Regional Weather Roundup
Issued by NWS

Home | Current Version | Previous Version | Text Only | Print | Product List | Glossary On
Versions: 1 2 3 4 5 6 7 8 9 10 11 12 13 14 15 16 17 18 19 20 21 22 23 24 25 26 27 28 29 30 31 32 33 34 35 36 37 38 39 40 41 42 43 44 45 46 47 48 49 50
000
ASUS43 KLSX 010110
RWRMO

WEATHER SUMMARY FOR MISSOURI
NATIONAL WEATHER SERVICE SPRINGFIELD MO
800 PM CDT SAT APR 30 2016

NOTE: "FAIR" INDICATES FEW OR NO CLOUDS BELOW 12,000 FEET WITH NO
       SIGNIFICANT WEATHER AND/OR OBSTRUCTIONS TO VISIBILITY.
       CURRENT SKY AND/OR WEATHER CONDITIONS ARE NOT AVAILABLE FOR
       CHILLICOTHE AND FARMINGTON.

MOZ001>031-035>038-043-044-053-054-010200-
...NORTHERN AND WESTERN MISSOURI...

CITY           SKY/WX    TMP DP  RH WIND       PRES   REMARKS
KANSAS CTY INT MOCLDY    60  49  66 NW3       29.79R
KANSAS C DTWN  CLOUDY    65  50  58 NW8       29.77R
LEE`S SUMMIT   CLEAR     63  47  55 W6        29.79R
ST JOSEPH      PTCLDY    59  50  72 W5        29.79R
CHILLICOTHE      N/A     63  50  62 CALM      29.80R
KIRKSVILLE     MOCLDY    58  54  86 N10       29.80R

$$
MOZ066>068-077>081-088>096-101>105-010200-
...SOUTHWEST MISSOURI...

CITY           SKY/WX    TMP DP  RH WIND       PRES   REMARKS
SPRINGFIELD    PTCLDY    66  53  63 W8        29.79R
JOPLIN         CLEAR     63  53  70 CALM      29.81R
BRANSON        PTCLDY    66  59  77 CALM      29.80R

$$
MOZ032>034-039>042-045>050-055>058-069>072-010200-
...CENTRAL MISSOURI...

CITY           SKY/WX    TMP DP  RH WIND       PRES   REMARKS
COLUMBIA       CLEAR     65  55  70 NW8       29.77R
JEFFERSON CITY CLEAR     69  56  62 NW7       29.75R
ROLLA          CLEAR     66  58  75 W3        29.76R
SEDALIA        PTCLDY    66  54  65 W5        29.78R
WHITEMAN AFB   PTCLDY    64  53  67 W3        29.77R
WARRENSBURG    PTCLDY    63  48  59 W6        29.78R
OSAGE BEACH    CLEAR     70  52  52 W5        29.77R

$$
MOZ051-052-059>065-010200-
...EAST CENTRAL MISSOURI...

CITY           SKY/WX    TMP DP  RH WIND       PRES   REMARKS
ST LOUIS INTL  TSTM      63  56  78 E10       29.77R
SPIRIT OF STL  CLOUDY    63  61  93 SE6       29.77R
ST CHARLES     CLOUDY    64  56  75 SE6       29.77R

$$
MOZ072>076-082>087-097>100-106>115-010200-
...SOUTH CENTRAL AND SOUTHEAST MISSOURI...

CITY           SKY/WX    TMP DP  RH WIND       PRES   REMARKS
CAPE GIRARDEAU CLEAR     69  61  75 S8        29.80R
FARMINGTON     CLEAR     67  61  81 SE7       29.79R
POPLAR BLUFF   CLEAR     70  62  76 CALM      29.79R
WEST PLAINS    TSTM      60  55  83 N9        29.81R

$$




USA.gov is the U.S. government's official web portal to all federal, state and local government web resources and services.